• In Netherlands
  • List of Countries
  • For 7 days
  • Water Temperature
  • Satellite Maps
  • Weather Map
  • Weather Widgets
  • user-avatar
    Login

    Hourly Weather Tirana

    Today, 24 March, Friday

    Time Temperature Precipitation Wind Pressure Humidity
    00:00 +12°C° 0 mm 0 mps 757 mmHg 85%
    01:00 +12°C° 0 mm 0 mps 757 mmHg 84%
    02:00 +12°C° 0 mm 0 mps 757 mmHg 84%
    03:00 +13°C° 0 mm 1 mps 757 mmHg 83%
    04:00 +12°C° 0 mm 1 mps 757 mmHg 83%
    05:00 +14°C° 0 mm 1 mps 757 mmHg 78%
    06:00 +15°C° 0 mm 1 mps 757 mmHg 74%
    07:00 +19°C° 0 mm 1 mps 757 mmHg 64%
    08:00 +21°C° 0 mm 1 mps 757 mmHg 57%
    09:00 +23°C° 0 mm 1 mps 757 mmHg 50%
    10:00 +25°C° 0 mm 1 mps 758 mmHg 43%
    11:00 +25°C° 0 mm 2 mps 757 mmHg 41%
    12:00 +26°C° 0 mm 3 mps 757 mmHg 40%
    13:00 +26°C° 0 mm 3 mps 757 mmHg 38%
    14:00 +26°C° 0 mm 3 mps 757 mmHg 40%
    15:00 +25°C° 0 mm 3 mps 757 mmHg 43%
    16:00 +23°C° 0 mm 4 mps 757 mmHg 45%
    17:00 +21°C° 0 mm 3 mps 757 mmHg 53%
    18:00 +18°C° 0 mm 3 mps 757 mmHg 61%
    19:00 +16°C° 0 mm 2 mps 757 mmHg 69%
    20:00 +16°C° 0 mm 2 mps 757 mmHg 69%
    21:00 +15°C° 0 mm 2 mps 757 mmHg 70%
    22:00 +15°C° 0 mm 1 mps 757 mmHg 70%
    23:00 +15°C° 0 mm 1 mps 757 mmHg 70%

    Tomorrow, 25 March, Saturday

    Time Temperature Precipitation Wind Pressure Humidity
    00:00 +14°C° 0 mm 1 mps 757 mmHg 71%
    01:00 +14°C° 0 mm 1 mps 758 mmHg 71%
    02:00 +14°C° 0 mm 1 mps 757 mmHg 73%
    03:00 +14°C° 0 mm 1 mps 757 mmHg 75%
    04:00 +14°C° 0 mm 1 mps 757 mmHg 76%
    05:00 +15°C° 0 mm 1 mps 757 mmHg 74%
    06:00 +16°C° 0 mm 1 mps 757 mmHg 71%
    07:00 +18°C° 0 mm 1 mps 758 mmHg 68%
    08:00 +20°C° 0 mm 1 mps 758 mmHg 60%
    09:00 +22°C° 0 mm 1 mps 758 mmHg 53%
    10:00 +24°C° 0 mm 1 mps 758 mmHg 46%
    11:00 +25°C° 0.1 mm 2 mps 757 mmHg 45%
    12:00 +25°C° 0.1 mm 3 mps 757 mmHg 45%
    13:00 +25°C° 0.1 mm 4 mps 757 mmHg 45%
    14:00 +23°C° 0 mm 4 mps 757 mmHg 48%
    15:00 +23°C° 0 mm 4 mps 756 mmHg 51%
    16:00 +22°C° 0 mm 4 mps 756 mmHg 54%
    17:00 +19°C° 0 mm 3 mps 756 mmHg 64%
    18:00 +17°C° 0 mm 2 mps 756 mmHg 75%
    19:00 +15°C° 0 mm 2 mps 756 mmHg 85%
    20:00 +14°C° 0 mm 1 mps 756 mmHg 86%
    21:00 +14°C° 0 mm 1 mps 756 mmHg 87%
    22:00 +13°C° 0 mm 1 mps 756 mmHg 88%
    23:00 +13°C° 0 mm 1 mps 756 mmHg 88%

    Day after tomorrow, 26 March, Sunday

    Time Temperature Precipitation Wind Pressure Humidity
    00:00 +12°C° 0 mm 1 mps 756 mmHg 88%
    01:00 +12°C° 0 mm 1 mps 756 mmHg 88%
    02:00 +12°C° 0 mm 1 mps 755 mmHg 88%
    03:00 +11°C° 0 mm 1 mps 755 mmHg 88%
    04:00 +11°C° 0 mm 1 mps 755 mmHg 88%
    05:00 +12°C° 0 mm 1 mps 755 mmHg 83%
    06:00 +14°C° 0 mm 1 mps 755 mmHg 77%
    07:00 +15°C° 0 mm 1 mps 755 mmHg 71%
    08:00 +18°C° 0 mm 1 mps 754 mmHg 64%
    09:00 +19°C° 0 mm 1 mps 754 mmHg 57%
    10:00 +20°C° 0 mm 2 mps 754 mmHg 50%
    11:00 +20°C° 0 mm 2 mps 754 mmHg 51%
    12:00 +20°C° 0 mm 3 mps 753 mmHg 52%
    13:00 +21°C° 0 mm 3 mps 752 mmHg 53%
    14:00 +20°C° 0.1 mm 3 mps 752 mmHg 56%
    15:00 +19°C° 0.1 mm 3 mps 752 mmHg 59%
    16:00 +19°C° 0.1 mm 3 mps 751 mmHg 63%
    17:00 +17°C° 0.1 mm 3 mps 751 mmHg 71%
    18:00 +14°C° 0.1 mm 3 mps 752 mmHg 79%
    19:00 +12°C° 0.1 mm 4 mps 752 mmHg 87%
    20:00 +12°C° 0.5 mm 3 mps 752 mmHg 88%
    21:00 +12°C° 0.5 mm 3 mps 752 mmHg 90%
    22:00 +11°C° 0.5 mm 3 mps 753 mmHg 91%
    23:00 +11°C° 0.3 mm 3 mps 753 mmHg 90%

    27 March, Monday

    Time Temperature Precipitation Wind Pressure Humidity
    00:00 +11°C° 0.3 mm 3 mps 753 mmHg 90%
    01:00 +11°C° 0.3 mm 4 mps 753 mmHg 89%
    02:00 +10°C° 0.2 mm 4 mps 753 mmHg 88%
    03:00 +9°C° 0.2 mm 5 mps 753 mmHg 88%
    04:00 +9°C° 0.2 mm 5 mps 753 mmHg 87%
    05:00 +9°C° 0.2 mm 5 mps 753 mmHg 84%
    06:00 +9°C° 0.2 mm 5 mps 753 mmHg 81%
    07:00 +10°C° 0.2 mm 6 mps 754 mmHg 78%
    08:00 +11°C° 0.2 mm 6 mps 754 mmHg 72%
    09:00 +13°C° 0.2 mm 5 mps 754 mmHg 65%
    10:00 +14°C° 0.2 mm 5 mps 754 mmHg 59%
    11:00 +14°C° 0.1 mm 5 mps 754 mmHg 57%
    12:00 +15°C° 0.1 mm 5 mps 754 mmHg 55%
    13:00 +16°C° 0.1 mm 5 mps 754 mmHg 52%
    14:00 +16°C° 0.1 mm 5 mps 754 mmHg 53%
    15:00 +15°C° 0.1 mm 5 mps 754 mmHg 54%
    16:00 +15°C° 0.1 mm 5 mps 754 mmHg 55%
    17:00 +14°C° 0.1 mm 5 mps 754 mmHg 61%
    18:00 +12°C° 0.1 mm 5 mps 754 mmHg 66%
    19:00 +10°C° 0.1 mm 5 mps 755 mmHg 71%
    20:00 +10°C° 0 mm 5 mps 755 mmHg 72%
    21:00 +9°C° 0 mm 5 mps 756 mmHg 73%
    22:00 +9°C° 0 mm 5 mps 756 mmHg 73%
    23:00 +9°C° 0 mm 5 mps 756 mmHg 74%

    28 March, Tuesday

    Time Temperature Precipitation Wind Pressure Humidity
    00:00 +9°C° 0 mm 5 mps 756 mmHg 75%
    01:00 +8°C° 0 mm 5 mps 756 mmHg 75%
    02:00 +8°C° 0 mm 5 mps 757 mmHg 76%
    03:00 +8°C° 0 mm 5 mps 757 mmHg 76%
    04:00 +8°C° 0 mm 5 mps 757 mmHg 76%
    05:00 +8°C° 0 mm 5 mps 757 mmHg 74%
    06:00 +8°C° 0 mm 5 mps 758 mmHg 72%
    07:00 +9°C° 0 mm 5 mps 758 mmHg 70%
    08:00 +12°C° 0 mm 5 mps 758 mmHg 62%
    09:00 +14°C° 0 mm 4 mps 759 mmHg 55%
    10:00 +17°C° 0 mm 4 mps 759 mmHg 47%
    11:00 +18°C° 0 mm 4 mps 759 mmHg 44%
    12:00 +18°C° 0 mm 4 mps 759 mmHg 41%
    13:00 +19°C° 0 mm 4 mps 758 mmHg 39%
    14:00 +19°C° 0 mm 4 mps 758 mmHg 39%
    15:00 +19°C° 0 mm 5 mps 758 mmHg 40%
    16:00 +19°C° 0 mm 6 mps 758 mmHg 41%
    17:00 +16°C° 0 mm 6 mps 758 mmHg 47%
    18:00 +14°C° 0 mm 6 mps 759 mmHg 54%
    19:00 +10°C° 0 mm 6 mps 759 mmHg 61%
    20:00 +10°C° 0 mm 5 mps 760 mmHg 61%
    21:00 +9°C° 0 mm 5 mps 760 mmHg 62%
    22:00 +10°C° 0 mm 4 mps 760 mmHg 63%
    23:00 +8°C° 0 mm 4 mps 760 mmHg 63%

    29 March, Wednesday

    Time Temperature Precipitation Wind Pressure Humidity
    00:00 +8°C° 0 mm 4 mps 760 mmHg 63%
    01:00 +9°C° 0 mm 3 mps 760 mmHg 64%
    02:00 +8°C° 0 mm 3 mps 760 mmHg 63%
    03:00 +8°C° 0 mm 3 mps 760 mmHg 63%
    04:00 +8°C° 0 mm 3 mps 760 mmHg 63%
    05:00 +9°C° 0 mm 3 mps 760 mmHg 60%
    06:00 +10°C° 0 mm 3 mps 761 mmHg 58%
    07:00 +11°C° 0 mm 3 mps 761 mmHg 56%
    08:00 +13°C° 0 mm 3 mps 761 mmHg 48%
    09:00 +17°C° 0 mm 3 mps 761 mmHg 40%
    10:00 +20°C° 0 mm 2 mps 760 mmHg 32%
    11:00 +20°C° 0 mm 3 mps 760 mmHg 31%
    12:00 +21°C° 0 mm 4 mps 760 mmHg 29%
    13:00 +22°C° 0 mm 4 mps 760 mmHg 28%
    14:00 +22°C° 0 mm 5 mps 759 mmHg 31%
    15:00 +21°C° 0 mm 5 mps 759 mmHg 34%
    16:00 +21°C° 0 mm 5 mps 759 mmHg 37%
    17:00 +17°C° 0 mm 5 mps 759 mmHg 47%
    18:00 +15°C° 0 mm 5 mps 760 mmHg 57%
    19:00 +12°C° 0 mm 4 mps 760 mmHg 67%
    20:00 +12°C° 0 mm 4 mps 760 mmHg 65%
    21:00 +12°C° 0 mm 4 mps 760 mmHg 64%
    22:00 +11°C° 0 mm 3 mps 760 mmHg 62%
    23:00 +11°C° 0 mm 3 mps 760 mmHg 62%
    Show more